TimePDT,TemperatureF,Dew PointF,Humidity,Sea Level PressureIn,VisibilityMPH,Wind Direction,Wind SpeedMPH,Gust SpeedMPH,PrecipitationIn,Events,Conditions,WindDirDegrees,DateUTC
12:52 AM,55.0,37.9,53,29.93,-9999.0,NNE,3.5,-,N/A,,Unknown,30,2011-10-23 07:52:00
1:52 AM,54.0,37.9,55,29.93,-9999.0,Calm,Calm,-,N/A,,Unknown,0,2011-10-23 08:52:00
2:52 AM,53.1,37.9,57,29.92,-9999.0,NNE,3.5,-,N/A,,Unknown,30,2011-10-23 09:52:00
3:52 AM,53.1,37.0,55,29.91,-9999.0,NE,4.6,-,N/A,,Unknown,40,2011-10-23 10:52:00
4:52 AM,50.0,35.1,57,29.91,-9999.0,NE,4.6,-,N/A,,Unknown,50,2011-10-23 11:52:00
5:52 AM,46.0,34.0,63,29.93,-9999.0,NE,4.6,-,N/A,,Unknown,50,2011-10-23 12:52:00
6:52 AM,46.0,33.1,61,29.94,-9999.0,NE,4.6,-,N/A,,Unknown,50,2011-10-23 13:52:00
7:52 AM,52.0,34.0,50,29.95,-9999.0,Variable,3.5,-,N/A,,Unknown,0,2011-10-23 14:52:00
8:52 AM,66.0,41.0,40,29.95,-9999.0,Calm,Calm,-,N/A,,Unknown,0,2011-10-23 15:52:00
9:52 AM,82.9,28.9,14,29.93,-9999.0,ENE,10.4,-,N/A,,Unknown,70,2011-10-23 16:52:00
10:52 AM,84.9,30.0,14,29.92,-9999.0,ENE,15.0,18.4,N/A,,Unknown,60,2011-10-23 17:52:00
11:52 AM,86.0,28.0,12,29.91,-9999.0,East,3.5,-,N/A,,Unknown,80,2011-10-23 18:52:00
12:00 PM,-9999,-9999,N/A,-9999,-9999.0,North,-9999.0,-,N/A,,Unknown,0,2011-10-23 19:00:00
12:52 PM,88.0,30.0,12,29.88,-9999.0,ESE,10.4,16.1,N/A,,Unknown,110,2011-10-23 19:52:00
1:00 PM,-9999,-9999,N/A,-9999,-9999.0,North,-9999.0,-,N/A,,Unknown,0,2011-10-23 20:00:00
1:52 PM,90.0,28.0,11,29.85,-9999.0,Calm,Calm,-,N/A,,Unknown,0,2011-10-23 20:52:00
2:52 PM,88.0,30.9,13,29.84,-9999.0,SW,12.7,-,N/A,,Unknown,230,2011-10-23 21:52:00
3:52 PM,82.9,46.0,27,29.86,-9999.0,SW,13.8,17.3,N/A,,Unknown,220,2011-10-23 22:52:00
4:52 PM,80.1,44.1,28,29.88,-9999.0,SW,11.5,-,N/A,,Unknown,220,2011-10-23 23:52:00
5:52 PM,75.0,44.1,33,29.90,-9999.0,SSW,5.8,-,N/A,,Unknown,210,2011-10-24 00:52:00
6:52 PM,64.9,44.1,47,29.94,-9999.0,Calm,Calm,-,N/A,,Unknown,0,2011-10-24 01:52:00
7:52 PM,57.9,39.9,51,29.96,-9999.0,NNE,3.5,-,N/A,,Unknown,30,2011-10-24 02:52:00
8:52 PM,59.0,39.9,49,29.96,-9999.0,NNE,3.5,-,N/A,,Unknown,30,2011-10-24 03:52:00
9:52 PM,53.1,37.9,57,29.96,-9999.0,NNE,3.5,-,N/A,,Unknown,30,2011-10-24 04:52:00
10:52 PM,53.1,37.0,55,29.96,-9999.0,ENE,4.6,-,N/A,,Unknown,70,2011-10-24 05:52:00
11:52 PM,52.0,37.0,57,29.95,-9999.0,ENE,4.6,-,N/A,,Unknown,70,2011-10-24 06:52:00